Change the Weather History Date:

Sunday, June 30, 2013

  Actual Average Record
Temperature  
Mean Temperature 81 °F 84 °F  
Max Temperature 90 °F 94 °F 105 °F (1907)
Min Temperature 72 °F 74 °F 60 °F (1985)
Degree Days  
Heating Degree Days 0 0  
Month to date heating degree days 0 0  
Since 1 June heating degree days 0 0  
Since 1 July heating degree days 1206 1496  
Cooling Degree Days 16 19  
Month to date cooling degree days 575 523  
Year to date cooling degree days 1192 1152  
Since 1 June cooling degree days 575 523  
Growing Degree Days 30 (Base 50)    
Moisture  
Dew Point 67 °F    
Average Humidity 65    
Maximum Humidity 93    
Minimum Humidity 36    
Precipitation  
Precipitation 0.37 in 0.11 in 1.55 in (1936)
Month to date precipitation 2.02 4.14  
Year to date precipitation 21.86 16.11  
Snow  
Snow 0.00 in - - ()
Month to date snowfall 0.0  
Since 1 June snowfall 0.0  
Since 1 July snowfall T  
Snow Depth 0.00 in    
Sea Level Pressure  
Sea Level Pressure 29.86 in    
Wind  
Wind Speed 7 mph (North)    
Max Wind Speed 26 mph    
Max Gust Speed 35 mph    
Visibility 9 miles    
Events Rain , Thunderstorm    
T = Trace of Precipitation, MM = Missing Value Source: NWS Daily Summary

Daily Weather History Graph

Daily Weather History Graph

Search for Another Location

Airport or City:

Trip Planner

Search our weather history database for the weather conditions in past years. The results will help you decide how hot, cold, wet, or windy it might be!

Date:

Astronomy

Jun. 30, 2013 Rise Set
Actual Time 6:37 AM CDT 8:37 PM CDT
Civil Twilight 6:10 AM CDT 9:05 PM CDT
Nautical Twilight 5:37 AM CDT 9:38 PM CDT
Astronomical Twilight 5:01 AM CDT 10:13 PM CDT
Moon 1:15 AM CDT (6/30) 2:13 PM CDT (6/30)
Length of Visible Light 14h 55m
Length of Day
14h 00m
Last Quarter, 45% of the Moon is Illuminated
Jun 30
Last Quarter
Jul 8
New
Jul 15
First Quarter
Jul 22
Full
Jul 29
Last Quarter

Hourly Weather History & Observations

Time (CDT) Temp. Heat Index Dew Point Humidity Pressure Visibility Wind Dir Wind Speed Gust Speed Precip Events Conditions
12:51 AM 91.0 °F 90.5 °F 60.1 °F 35% 29.77 in 10.0 mi ENE 8.1 mph - N/A   Mostly Cloudy
1:51 AM 89.1 °F 90.0 °F 63.0 °F 42% 29.77 in 10.0 mi ENE 4.6 mph - N/A   Mostly Cloudy
2:51 AM 84.0 °F 85.4 °F 64.0 °F 51% 29.77 in 10.0 mi ESE 3.5 mph - N/A   Mostly Cloudy
3:51 AM 86.0 °F 87.3 °F 64.0 °F 48% 29.77 in 10.0 mi ENE 3.5 mph - N/A   Mostly Cloudy
4:51 AM 84.0 °F 85.8 °F 64.9 °F 53% 29.77 in 10.0 mi East 6.9 mph - N/A   Mostly Cloudy
5:51 AM 82.9 °F 83.3 °F 61.0 °F 47% 29.80 in 10.0 mi East 16.1 mph 21.9 mph N/A   Mostly Cloudy
6:51 AM 81.0 °F 82.2 °F 63.0 °F 54% 29.82 in 10.0 mi East 10.4 mph - N/A   Mostly Cloudy
7:51 AM 80.1 °F 81.7 °F 64.0 °F 58% 29.84 in 10.0 mi Calm Calm - N/A   Mostly Cloudy
7:57 AM 78.8 °F - 64.4 °F 61% 29.88 in 8.0 mi East 6.9 mph - 0.00 in Rain , Thunderstorm Light Thunderstorms and Rain
8:51 AM 75.0 °F - 66.9 °F 76% 29.96 in 10.0 mi NNW 21.9 mph 33.4 mph 0.03 in Rain , Thunderstorm Light Thunderstorms and Rain
9:51 AM 72.0 °F - 69.1 °F 91% 29.99 in 3.0 mi WNW 11.5 mph - 0.08 in Rain , Thunderstorm Light Thunderstorms and Rain
10:40 AM 71.6 °F - 69.8 °F 94% 29.98 in 7.0 mi Calm Calm - 0.15 in Rain Light Rain
10:51 AM 72.0 °F - 69.1 °F 91% 29.91 in 4.0 mi ESE 4.6 mph - 0.18 in Rain Rain
11:51 AM 73.9 °F - 70.0 °F 87% 29.90 in 9.0 mi Calm Calm - 0.08 in   Overcast
12:51 PM 75.0 °F - 70.0 °F 84% 29.91 in 10.0 mi Calm Calm - N/A   Overcast
1:51 PM 78.1 °F - 70.0 °F 76% 29.90 in 10.0 mi WNW 5.8 mph - N/A   Overcast
2:51 PM 81.0 °F 84.4 °F 70.0 °F 69% 29.88 in 10.0 mi West 13.8 mph - 0.00 in Rain Light Rain
3:51 PM 82.9 °F 87.0 °F 70.0 °F 65% 29.88 in 10.0 mi West 8.1 mph - 0.00 in   Mostly Cloudy
4:51 PM 84.9 °F 89.4 °F 70.0 °F 61% 29.86 in 10.0 mi WNW 10.4 mph - N/A   Mostly Cloudy
5:51 PM 86.0 °F 90.7 °F 70.0 °F 59% 29.85 in 10.0 mi NNW 5.8 mph - N/A   Mostly Cloudy
6:51 PM 88.0 °F 90.7 °F 66.9 °F 49% 29.83 in 10.0 mi NW 6.9 mph - N/A   Scattered Clouds
7:51 PM 87.1 °F 89.2 °F 66.0 °F 49% 29.82 in 10.0 mi NW 5.8 mph - N/A   Scattered Clouds
8:51 PM 81.0 °F 83.8 °F 68.0 °F 65% 29.82 in 10.0 mi NNW 5.8 mph - N/A   Partly Cloudy
9:51 PM 78.1 °F - 69.1 °F 74% 29.83 in 10.0 mi NNW 5.8 mph - N/A   Scattered Clouds
10:51 PM 75.9 °F - 68.0 °F 76% 29.84 in 10.0 mi NW 5.8 mph - N/A   Scattered Clouds
11:51 PM 75.9 °F - 66.9 °F 74% 29.85 in 10.0 mi NW 3.5 mph - N/A   Partly Cloudy